Location: Biberach+an+der+Riss
(48.0937°N, 9.7888°E)
Time: 09:26:26
(UTC+01:00)

ISS - Pass Details

Date: 11 February 2018
Orbit: 402 x 407 km, 51.6° (Epoch: 24 February)

Event Time Altitude Azimuth Distance (km) Brightness Sun altitude
Rises 19:23:55 0° 285° (WNW) 2,320 1.5 -18.4°
Reaches altitude 10° 19:26:29 10° 264° (W) 1,457 0.2 -18.8°
Maximum altitude 19:28:40 17° 222° (SW) 1,116 -1.1 -19.2°
Drops below altitude 10° 19:30:50 10° 180° (S) 1,452 -1.0 -19.5°
Enters shadow 19:31:02 - 178° (S) 1,506 -1.0 -19.6°
